Location: Exeidioux
(45.6312°N, 1.6819°E)
Time: 12:54:19
(UTC+00:00)

Cosmos 2219 Rocket - Pass Details

Date: 03 March 2021
Orbit: 827 x 848 km, 71.0° (Epoch: 11 April)

Event Time Altitude Azimuth Distance (km) Brightness Sun altitude
Rises 21:07:31 0° 235° (SW) 3,359 5.6 -35.3°
Reaches altitude 10° 21:10:12 10° 245° (WSW) 2,431 4.9 -35.6°
Maximum altitude 21:15:08 32° 308° (NW) 1,407 3.7 -36.4°
Drops below altitude 10° 21:20:07 10° 10° (N) 2,454 4.8 -37.1°
Sets 21:22:51 0° 21° (NNE) 3,395 5.5 -37.5°
